Miscellaneous Local Product
Issued by NWS Hastings, NE

Home | Current Version | Previous Version | Graphics & Text | Print | Product List | Glossary On
Versions: 1 2 3 4 5 6 7 8 9 10 11 12 13 14 15 16 17 18 19 20 21 22 23 24 25 26 27 28 29 30 31 32 33 34 35 36 37 38 39 40 41 42 43 44 45 46 47 48 49 50
000
AXUS43 KGID 190802
MISGRI

GID CWA HOURLY WEATHER ROUNDUP
NATIONAL WEATHER SERVICE HASTINGS NE
200 AM CST FRI JAN 19 2018

NOTE: "FAIR" INDICATES FEW OR NO CLOUDS BELOW 12,000 FEET WITH NO
SIGNIFICANT WEATHER AND/OR OBSTRUCTIONS TO VISIBILITY.

...SOUTH CENTRAL NEBRASKA...

CITY           SKY/WX    TMP DP  RH WIND       PRES   REMARKS
GRAND ISLAND   CLOUDY    34  27  75 SW8       29.79F WCI  27
KEARNEY        NOT AVBL
HASTINGS       CLOUDY    38  20  48 SW8       29.81F WCI  32
ORD            CLOUDY    33  27  78 CALM      29.75F
YORK           CLOUDY    32  27  80 S8        29.82S WCI  25
AURORA         CLOUDY    35  25  67 SW13      29.80F WCI  26
LEXINGTON      CLOUDY    30  25  81 W8        29.79F WCI  23
HOLDREGE       CLOUDY    35  26  69 SW7       29.81F WCI  29
HEBRON         PTCLDY    36  23  59 SW10      29.86F WCI  28

...NEBRASKA PANHANDLE...

CITY           SKY/WX    TMP DP  RH WIND       PRES   REMARKS
CHADRON        CLOUDY    33  29  85 CALM      29.71F
ALLIANCE       MOCLDY    36  29  75 SW8       29.76F WCI  30
SCOTTSBLUFF    CLOUDY    32  28  85 CALM      29.80F
SIDNEY         MOCLDY    37  20  50 SW12      29.81F WCI  29

...WESTERN AND NORTH CENTRAL NEBRASKA...

CITY           SKY/WX    TMP DP  RH WIND       PRES   REMARKS
VALENTINE      CLOUDY    40  30  67 W7        29.69F
AINSWORTH      CLOUDY    42  32  69 SW10      29.69F
ONEILL         CLOUDY    38  31  77 SW6       29.72F WCI  33
BROKEN BOW     CLOUDY    32  23  69 W9        29.76F WCI  24
IMPERIAL       MOCLDY    32  24  72 W3        29.82F
NORTH PLATTE   CLOUDY    25  22  88 NW3       29.80F
MCCOOK         CLOUDY    28  22  78 W8        29.82F WCI  20

...EASTERN NEBRASKA...

CITY           SKY/WX    TMP DP  RH WIND       PRES   REMARKS
NORFOLK        CLOUDY    32  28  85 CALM      29.75F
SO SIOUX CITY  CLOUDY    24  23  96 SE8       29.78F WCI  15
TEKAMAH        CLOUDY    26  21  81 SE8       29.81F WCI  18
COLUMBUS       CLOUDY    27  23  85 CALM      29.80F
ALBION         MOCLDY    34  29  82 SE3       29.76F
OMAHA EPPLEY   CLOUDY    27  21  78 SE10      29.84F WCI  17
OFFUTT AFB     CLOUDY    22  18  87 CALM      29.84F
MILLARD        CLOUDY    26  22  84 SE3       29.83F
LINCOLN        CLOUDY    32  23  69 S8        29.85F WCI  25
NEBRASKA CITY  PTCLDY    37  28  70 SW17      29.86F WCI  27
BEATRICE       CLOUDY    34  26  72 S8        29.87F WCI  27
FALLS CITY     CLOUDY    34  23  64 S6        29.91F WCI  29

...NORTHERN KANSAS...

CITY           SKY/WX    TMP DP  RH WIND       PRES   REMARKS
GOODLAND       CLOUDY    40  16  37 SW13      29.85F WCI  32
HILL CITY      CLOUDY    33  13  43 SW6       29.86F WCI  28
NORTON         SUNNY     34  16  47 SW10      29.83F WCI  26
PHILLIPSBURG   CLEAR     36  14  41 SE5       29.86S WCI  32
SMITH CENTER     N/A     30  18  59 S7        29.87F WCI  23
BELOIT         CLEAR     34  18  51 CALM      29.90F
HAYS           CLOUDY    33  16  49 SW6       29.90F WCI  28
RUSSELL        CLOUDY    35  19  52 S15       29.88F WCI  25
CONCORDIA      CLOUDY    37  22  54 S15       29.87F WCI  28
SALINA         CLOUDY    35  24  64 S15       29.94F WCI  25
TOPEKA         CLOUDY    36  21  54 SW7       29.99S WCI  30



USA.gov is the U.S. government's official web portal to all federal, state and local government web resources and services.